Hourly Data Report for July 18, 2016

OTTAWA INTL A
ONTARIO

45°19'00.000" N
75°40'00.000" W
114.90 m
6106001
71628
YOW

Download Data

Hourly Data (July 2016)
Hourly Data Report for July 18, 2016
TIME
LST
Temp Definition
°C
Dew Point Definition
°C
Rel Hum Definition
%
Precip. Amount Definition
mm

Wind Dir Definition
10's deg

Wind Spd Definition
km/h
Visibility Definition
km
Stn Press Definition
kPa
Hmdx Definition


Wind Chill Definition


Weather Definition


00:00 18.9 14.6 76   15 16 16.1 100.04     Rain
01:00 17.1 16.0 93   11 13 24.1 99.91     Rain
02:00 17.6 15.8 89   14 7 24.1 99.85     LegendNANA
03:00 16.3 15.2 93   17 4 24.1 99.79     LegendNANA
04:00 17.1 15.6 91   20 7 24.1 99.78     Mainly Clear
05:00 18.9 17.1 89   18 9 24.1 99.75     LegendNANA
06:00 20.9 18.1 84   21 10 24.1 99.75 27   LegendNANA
07:00 23.4 19.4 78   21 17 24.1 99.73 30   Mainly Clear
08:00 24.4 19.8 75   23 19 24.1 99.73 32   LegendNANA
09:00 26.2 20.2 69   25 26 24.1 99.72 34   LegendNANA
10:00 27.2 18.9 60   24 36 24.1 99.70 34   Mostly Cloudy
11:00 28.1 19.0 57   26 33 24.1 99.66 35   LegendNANA
12:00 28.9 18.6 53   28 27 24.1 99.67 35   LegendNANA
13:00 28.5 17.9 52   30 37 24.1 99.68 34   Mainly Clear
14:00 29.4 16.1 44   30 30 24.1 99.71 34   LegendNANA
15:00 29.0 15.4 43   26 30 24.1 99.70 33   LegendNANA
16:00 29.0 14.7 41   29 28 24.1 99.73 33   Mainly Clear
17:00 28.1 14.6 43   29 25 24.1 99.78 32   LegendNANA
18:00 26.9 12.4 40   30 26 24.1 99.81 29   LegendNANA
19:00 24.0 14.6 55   36 21 24.1 99.92 28   Mostly Cloudy
20:00 21.4 13.4 60   36 23 24.1 100.04     LegendNANA
21:00 20.8 13.1 61   35 26 24.1 100.14     LegendNANA
22:00 20.1 12.2 60   34 29 24.1 100.26     Mostly Cloudy
23:00 18.8 10.5 58   32 26 24.1 100.37     LegendNANA

Notes on Data Quality.

Legend

  • E = Estimated
  • M = Missing
  • NA = Not Available*
  • [empty] = Indicates an unobserved value
Date modified: